COSMOS 923

Satellite information

Favourite Embed

Satellite Type and Status

PAYLOADIN ORBIT

Key statistics

Satellite COSMOS 923 at a glance.

Uptime

17478

Days in orbit

Revolutions

≈ 14.3

Per day

Orbit

LEO

Low Earth Orbit

Inclination

74.1

Latest

Satellite identification and parameters

Extended collection of information and parameters for COSMOS 923.

Object identification

Identified? True

Debris? False

Object name: COSMOS 923

International designator: 1977-059A

Object number (NORAD): 10120

Object ID (CCSDS): 10120

Country: COMMONWEALTH OF INDEPENDENT STATES (CIS)

Current information (Y/N): Y

RCS size: LARGE

Orbital parameters

Period: 100.507 minutes

Inclination: 74.0503 deg

SMA: 7160.713 km

Apoapsis: 791.04 km

Periapsis: 774.117 km

RAAN: 43.0301 deg

Eccentricy: 0.0011817

Argument of periapsis: 61.0026 deg

Mean anomaly: 299.2308 deg

Mean motion: 14.32743087 rev/day

Mean motion (dot): 0.00000181 rev/day2

B* drag term: 0.000075745 1/REarth

Two-line elements (TLE)

Creation date: May 8, 2025, 3:01 a.m.

Reference frame: TEME

Reference center: EARTH

Epoch: May 7, 2025, 7:34 p.m. UTC

TLE line 0: 0 COSMOS 923

TLE line 1: 1 10120U 77059A 25127.81544304 .00000181 00000-0 75745-4 0 9990

TLE line 2: 2 10120 74.0503 43.0301 0011817 61.0026 299.2308 14.32743087497809

Live tracking on map

Real-time ground track for satellite COSMOS 923.

In-orbit conjunctions

A list of the most updated potential collisions computed for object COSMOS 923.

Target Orbit TCA Probability of collision Miss distance Type
CZ-4B R/B LEO 2024-11-25 15:24:48 0.0002616812 896.0 (m) ROCKET BODY
THORAD AGENA D DEB SSO 2024-11-04 04:55:51 0.00100052 91.0 (m) DEBRIS
METEOR 2-5 DEB LEO 2024-08-29 03:59:45 0.0002951176 158.0 (m) DEBRIS

Associated space launch

Military communications satellite

COSMOS 923 was lifted into orbit during the mission ‘Kosmos-3M | Strela-2M 15’, on board a Kosmos-3M space rocket.

The launch took place on July 1, 1977, 11:52 a.m. from 132/1 (132L).

For more information about the launch, click the button.

Launch to space Kosmos-3M | Strela-2M 15
Kosmos-3M | Strela-2M 15

Agency: N/A

Status: Launch Successful

Launch date: July 1, 1977, 11:52 a.m. UTC

Rocket: Kosmos-3M

Launch pad: 132/1 (132L)

Location: Plesetsk Cosmodrome, Russian Federation

...

Latest news about this satellite

There are no fresh news available about this satellite. Check back as we update our databases every day.


Newsletter sign-up

Weekly statistics, charts and insights to help you stay on top of the space industry.